Location: アルンシュタイン
(50.0000°N, 10.0000°E)
Time: 18:49:07
(UTC+02:00)

Vanguard 3 - Visible Passes

Search period start: 11 September 2024 00:00
Search period end: 21 September 2024 00:00
Orbit: 507 x 3226 km, 33.3° (Epoch: 10 September)

Date Brightness Start Highest point End Pass type
(mag) Time Alt. Az. Time Alt. Az. Time Alt. Az.
13 Sep 11.5 06:24:08 10° S 06:35:11 18° SE 06:45:47 10° ESE visible
15 Sep 11.4 05:55:34 10° S 06:06:59 20° SE 06:18:25 10° ESE visible
16 Sep 11.5 04:44:18 10° SE 04:47:17 11° SE 04:50:17 10° ESE visible
17 Sep 11.3 05:27:18 10° S 05:38:43 20° SE 05:50:41 10° E visible
18 Sep 11.4 04:15:17 10° SE 04:19:07 11° SE 04:23:04 10° ESE visible
18 Sep 11.1 06:16:13 10° SSW 06:30:35 30° SSE 06:45:31 10° E visible
19 Sep 11.1 04:59:16 10° S 05:10:23 21° SE 05:22:37 10° E visible
20 Sep 11.2 03:47:00 10° SE 03:50:56 11° SE 03:55:02 10° ESE visible
20 Sep 11.0 05:48:17 10° SSW 06:02:07 31° SSE 06:17:27 10° E visible
